Flag for Switzerland Weather past 2 weeks in Thônex, Geneva, Switzerland

Now
66 °F

Passing clouds.


Feels Like: 66 °F
Forecast: 49 / 64 °F
Wind: 3 mph from North

Location: Geneva Cointrin Airport

Current Time: May 25, 2015 at 10:10:13 AM

Latest Report: May 25, 2015 at 9:50 AM


Visibility: N/A

Pressure: 30.01 "Hg

Humidity: 52%

Dew point: 48 °F

Location of ThônexLocation

Historic Weather in Thônex — Graph

°F

Thônex temperature yesterday

Maximum temperature yesterday: 70 °F (at 3:20 PM)
Minimum temperature yesterday: 46 °F (at 5:20 AM)
Average temperature yesterday: 60 °F

Past Weeks' High & Low Weather Summary

 TemperatureHumidityPressure
High86 °F (May 13, 3:20 PM)100% (May 11, 6:20 AM)30.36 "Hg (May 11, 6:20 AM)
Low45 °F (May 11, 6:20 AM)20% (May 10, 5:20 PM)29.80 "Hg (May 18, 5:20 PM)
Average60 °F61%30.09 "Hg
* Reported May 10 8:20 AM — May 25 8:50 AM, Thônex, Weather by CustomWeather, © 2015

Note: Actual official high and low records may vary slightly from our data, if they occured in-between our weather recording intervals... More about our weather records

Advertising

Thônex weather history for previous 24 hours

 ConditionsComfort  
Time TempWeatherWind HumidityBarometerVisibility
8:50 AM
Mon, May 25
64 °FScattered clouds.1 mph56%30.01 "HgN/A
8:20 AM64 °FScattered clouds.1 mph56%30.04 "HgN/A
7:50 AM61 °FScattered clouds.1 mph72%30.04 "HgN/A
7:20 AM55 °FPartly sunny.1 mph82%30.04 "HgN/A
6:50 AM54 °FClear.1 mph82%30.04 "Hg10 mi
6:20 AM54 °FClear.1 mph82%30.04 "Hg10 mi
5:50 AM54 °FClear.1 mph82%30.04 "Hg10 mi
5:20 AM54 °FPassing clouds.No wind82%30.04 "HgN/A
4:50 AM55 °FPassing clouds.2 mph77%30.04 "HgN/A
4:20 AM55 °FPassing clouds.1 mph82%30.04 "HgN/A
3:50 AM55 °FPassing clouds.2 mph82%30.04 "HgN/A
2:50 AM55 °FPassing clouds.No wind82%30.04 "HgN/A
2:20 AM55 °FPassing clouds.3 mph82%30.04 "HgN/A
1:50 AM57 °FPassing clouds.1 mph72%30.04 "HgN/A
1:20 AM57 °FPassing clouds.1 mph72%30.04 "HgN/A
12:50 AM59 °FPartly cloudy.No wind72%30.04 "HgN/A
11:50 PM
Sun, May 24
59 °FPassing clouds.3 mph68%30.04 "HgN/A
11:20 PM59 °FPassing clouds.5 mph68%30.04 "HgN/A
10:50 PM61 °FPassing clouds.3 mph63%30.04 "HgN/A
10:20 PM61 °FPassing clouds.2 mph63%30.04 "HgN/A
9:50 PM61 °FPartly sunny.2 mph63%30.04 "HgN/A
9:20 PM63 °FBroken clouds.2 mph56%30.01 "HgN/A
8:50 PM64 °FPartly sunny.2 mph56%30.01 "HgN/A
8:20 PM64 °FPartly sunny.2 mph56%30.01 "HgN/A
7:50 PM66 °FPartly sunny.3 mph56%30.01 "HgN/A
7:20 PM66 °FPartly sunny.2 mph49%30.01 "HgN/A
6:50 PM66 °FPartly sunny.3 mph49%30.01 "HgN/A
6:20 PM68 °FPartly sunny.7 mph46%30.01 "HgN/A
5:50 PM68 °FPartly sunny.9 mph46%30.01 "HgN/A
5:20 PM68 °FPartly sunny.12 mph43%30.01 "HgN/A
4:50 PM68 °FPartly sunny.13 mph43%30.01 "HgN/A
4:20 PM70 °FScattered clouds.15 mph40%30.01 "HgN/A
3:50 PM70 °FPassing clouds.15 mph38%30.01 "HgN/A
3:20 PM70 °FPassing clouds.15 mph40%30.01 "HgN/A
2:50 PM68 °FPassing clouds.15 mph43%30.01 "HgN/A
2:20 PM68 °FPassing clouds.15 mph43%30.01 "HgN/A
1:50 PM68 °FPassing clouds.16 mph46%30.04 "HgN/A
1:20 PM66 °FPassing clouds.16 mph46%30.04 "HgN/A
12:50 PM66 °FPassing clouds.17 mph49%30.04 "HgN/A
12:20 PM66 °FPassing clouds.16 mph49%30.04 "HgN/A
11:50 AM64 °FPassing clouds.17 mph52%30.04 "HgN/A
11:20 AM64 °FPassing clouds.14 mph52%30.01 "HgN/A
10:50 AM63 °FPassing clouds.14 mph56%30.01 "HgN/A
10:20 AM61 °FPassing clouds.13 mph59%30.01 "HgN/A
Weather by CustomWeather, © 2015

See weather overviewHow to use our weather pages